Flag for Canada Weather past 2 weeks in Newmarket, Ontario, Canada

Now
25 °F

Overcast.


Feels Like: 18 °F
Forecast: 17 / 23 °F
Wind: 6 mph from Northwest

Location: Borden

Current Time: Dec 19, 2014 at 11:09:57 AM

Latest Report: Dec 19, 2014 at 10:00 AM


Visibility: 9 mi

Pressure: 30.24 "Hg

Humidity: 80%

Dew point: 19 °F

Location of NewmarketLocation

Historic Weather in Newmarket — Graph

°F

Newmarket temperature yesterday

Maximum temperature yesterday: 30 °F (at 12:00 AM)
Minimum temperature yesterday: 23 °F (at 9:00 PM)
Average temperature yesterday: 27 °F

Past Weeks' High & Low Weather Summary

 TemperatureHumidityPressure
High39 °F (Dec 6, 11:00 AM)100% (Dec 9, 10:00 AM)30.81 "Hg (Dec 9, 10:00 AM)
Low10 °F (Dec 4, 9:00 PM)40% (Dec 7, 1:00 PM)29.71 "Hg (Dec 16, 1:55 PM)
Average30 °F88%30.12 "Hg
* Reported Dec 4 10:00 AM — Dec 19 10:00 AM, Newmarket, Weather by CustomWeather, © 2014

Note: Actual official high and low records may vary slightly from our data, if they occured in-between our weather recording intervals... More about our weather records

Advertising

Newmarket weather history for previous 24 hours

 ConditionsComfort  
Time TempWeatherWind HumidityBarometerVisibility
10:00 AM
Dec 19
25 °FOvercast.6 mph80%30.24 "Hg9 mi
9:03 AM23 °FBroken clouds.6 mph86%30.19 "Hg9 mi
8:00 AM21 °FScattered clouds.5 mph93%30.21 "Hg9 mi
7:58 AM21 °FBroken clouds.3 mph93%30.17 "Hg9 mi
7:00 AM21 °FMostly cloudy.7 mph86%30.19 "Hg9 mi
6:00 AM19 °FOvercast.6 mph86%30.19 "Hg9 mi
5:00 AM19 °FOvercast.7 mph86%30.17 "Hg9 mi
4:00 AM21 °FLow clouds.8 mph93%30.16 "Hg9 mi
3:00 AM23 °FLow clouds.6 mph93%30.15 "Hg9 mi
2:00 AM23 °FOvercast.12 mph93%30.14 "Hg9 mi
1:00 AM21 °FOvercast.3 mph93%30.14 "Hg9 mi
12:00 AM21 °FOvercast.6 mph93%30.14 "Hg9 mi
11:00 PM
Dec 18
23 °FOvercast.8 mph86%30.14 "Hg9 mi
10:00 PM23 °FOvercast.7 mph86%30.14 "Hg9 mi
9:00 PM23 °FOvercast.7 mph86%30.14 "Hg9 mi
8:00 PM25 °FLow clouds.6 mph86%30.14 "Hg9 mi
7:00 PM25 °FLow clouds.10 mph93%30.13 "Hg9 mi
6:00 PM27 °FLight snow. Overcast.8 mph86%30.13 "Hg9 mi
5:49 PM27 °FLight snow. Overcast.14 mph86%30.09 "Hg9 mi
5:00 PM27 °FOvercast.12 mph86%30.12 "Hg9 mi
4:00 PM27 °FOvercast.9 mph86%30.11 "Hg9 mi
3:00 PM27 °FOvercast.13 mph86%30.10 "Hg6 mi
2:48 PM27 °FOvercast.9 mph86%30.07 "Hg6 mi
2:00 PM27 °FLight snow. Overcast.9 mph86%30.09 "Hg4 mi
1:00 PM27 °FOvercast.9 mph86%30.10 "Hg9 mi
12:00 PM27 °FOvercast.10 mph86%30.11 "Hg9 mi
11:00 AM27 °FOvercast.13 mph86%30.11 "Hg9 mi
Weather by CustomWeather, © 2014

See weather overviewHow to use our weather pages